DL1AIE-13 Weather Reports


Display with metric or nautical units.
time (UTC)temp
F
wind
direction
speed
MPH
gust
MPH
rain 1hr
in
rain 24hr
in
rain mn
in
humidity
%
barometer
mb
20260505065726 58 21 2.0 4.0 0.00 0.00 0.00 86 1010.0
20260505064723 58 16 2.0 3.0 0.00 0.00 0.00 87 1009.9
20260505063723 58 0.0 0.0 0.00 0.00 0.00 87 1009.9
20260505062735 58 6 0.0 1.0 0.00 0.00 0.00 89 1010.0
20260505061732 57 7 0.0 2.0 0.00 0.00 0.00 90 1010.0
20260505060728 57 6 0.0 1.0 0.00 0.00 0.00 91 1010.0
20260505055724 57 6 0.0 1.0 0.00 0.00 0.00 93 1010.2
20260505054720 56 0.0 0.0 0.00 0.00 0.00 93 1010.1
20260505053718 56 0.0 0.0 0.00 0.00 0.00 94 1010.0
20260505052734 56 0.0 0.0 0.00 0.00 0.00 94 1010.0
20260505051730 56 0.0 0.0 0.00 0.00 0.00 95 1010.0
20260505050726 56 0.0 0.0 0.00 0.00 0.00 95 1009.9
20260505041728 55 0.0 0.0 0.00 0.00 0.00 95 1010.2
20260505040728 55 0.0 0.0 0.00 0.00 0.00 96 1010.2
20260505035721 55 0.0 0.0 0.00 0.00 0.00 96 1010.3
20260505034717 55 0.0 0.0 0.00 0.00 0.00 96 1010.3
20260505033734 55 0.0 0.0 0.00 0.00 0.00 95 1010.4
20260505032730 55 0.0 0.0 0.00 0.00 0.00 95 1010.5
20260505031726 55 11 0.0 1.0 0.00 0.00 0.00 95 1010.6
20260505030723 55 11 1.0 1.0 0.00 0.00 0.00 95 1010.6
20260505025719 56 0.0 0.0 0.00 0.00 0.00 95 1010.7
20260505024735 56 0.0 0.0 0.00 0.00 0.00 94 1010.9
20260505023732 56 0.0 0.0 0.00 0.00 0.00 94 1010.9
20260505022728 56 0.0 0.0 0.00 0.00 0.00 94 1011.2
20260505021724 56 0.0 0.0 0.00 0.00 0.00 94 1011.2
20260505020721 56 0.0 0.0 0.00 0.00 0.00 94 1011.2
20260505015717 56 0.0 0.0 0.00 0.00 0.00 93 1011.3
20260505014734 56 26 2.0 3.0 0.00 0.00 0.00 93 1011.2
20260505013730 56 340 0.0 1.0 0.00 0.00 0.00 92 1011.3
20260505012727 56 0.0 0.0 0.00 0.00 0.00 92 1011.2
20260505011723 56 0.0 0.0 0.00 0.00 0.00 92 1011.3
20260505010720 57 0.0 0.0 0.00 0.00 0.00 92 1011.4
20260505005716 57 325 1.0 2.0 0.00 0.00 0.00 92 1011.5
20260505004732 57 0.0 0.0 0.00 0.00 0.00 92 1011.8
20260505003732 57 273 0.0 1.0 0.00 0.00 0.00 92 1012.0
20260505002725 57 0.0 0.0 0.00 0.00 0.00 92 1012.1
20260505001721 57 0.0 0.0 0.00 0.00 0.00 91 1012.1
20260505000718 57 272 1.0 2.0 0.00 0.00 0.00 91 1012.3
20260504235735 58 41 2.0 2.0 0.00 0.00 0.00 89 1012.1
20260504234731 58 45 3.0 3.0 0.00 0.00 0.00 89 1012.3
20260504233727 58 295 1.0 2.0 0.00 0.00 0.00 88 1012.4
20260504232723 58 354 1.0 3.0 0.00 0.00 0.00 87 1012.5
20260504231719 59 337 4.0 6.0 0.00 0.00 0.00 87 1012.7
20260504230716 58 327 3.0 4.0 0.00 0.00 0.00 88 1012.5
20260504225732 58 332 3.0 4.0 0.00 0.00 0.00 88 1012.7
20260504224729 58 351 1.0 3.0 0.00 0.00 0.00 89 1012.7
20260504223725 58 342 2.0 4.0 0.00 0.00 0.00 90 1013.0
20260504222721 58 0.0 0.0 0.00 0.00 0.00 90 1013.1
20260504221718 58 340 0.0 1.0 0.00 0.00 0.00 88 1013.2
20260504220737 58 0.0 0.0 0.00 0.00 0.00 87 1013.4
20260504215731 59 334 2.0 4.0 0.00 0.00 0.00 87 1013.4
20260504214726 59 329 4.0 6.0 0.00 0.00 0.00 86 1013.4
20260504213723 59 327 5.0 6.0 0.00 0.00 0.00 86 1013.4
20260504212720 59 317 4.0 6.0 0.00 0.00 0.00 86 1013.6
20260504211716 60 317 4.0 6.0 0.00 0.00 0.00 84 1013.5
20260504210732 60 321 3.0 3.0 0.00 0.00 0.00 82 1013.5
20260504205729 60 325 2.0 3.0 0.00 0.00 0.00 82 1013.6
20260504204725 60 324 1.0 2.0 0.00 0.00 0.00 81 1013.5
20260504203721 60 320 3.0 4.0 0.00 0.00 0.00 81 1013.6
20260504202718 61 306 3.0 4.0 0.00 0.00 0.00 80 1013.6
20260504201734 61 298 4.0 6.0 0.00 0.00 0.00 77 1013.6
20260504200730 61 282 1.0 3.0 0.00 0.00 0.00 77 1013.4
20260504195727 61 275 0.0 1.0 0.00 0.00 0.00 78 1013.3
20260504194723 61 0.0 0.0 0.00 0.00 0.00 77 1013.0
20260504193719 61 276 0.0 2.0 0.00 0.00 0.00 76 1012.7
20260504192735 62 0.0 0.0 0.00 0.00 0.00 75 1012.8
20260504191732 62 333 0.0 1.0 0.00 0.00 0.00 73 1012.6
20260504190731 62 338 1.0 2.0 0.00 0.00 0.00 74 1012.6
20260504185725 62 325 2.0 3.0 0.00 0.00 0.00 75 1012.6
20260504184726 63 269 0.0 1.0 0.00 0.00 0.00 72 1012.8
20260504183721 63 200 1.0 2.0 0.00 0.00 0.00 72 1012.8
20260504182734 63 314 2.0 4.0 0.00 0.00 0.00 70 1012.8
20260504181730 64 259 1.0 2.0 0.00 0.00 0.00 71 1012.7
20260504180726 64 6 3.0 10.0 0.00 0.00 0.00 70 1012.5
20260504175722 64 341 3.0 7.0 0.00 0.00 0.00 70 1012.4
20260504174719 64 345 3.0 6.0 0.00 0.00 0.00 71 1012.5
20260504173736 65 345 4.0 14.0 0.00 0.00 0.00 69 1012.6
20260504172735 65 336 8.0 13.0 0.00 0.00 0.00 68 1012.7
20260504171728 65 340 6.0 13.0 0.00 0.00 0.00 69 1012.6
20260504170725 66 331 9.0 13.0 0.00 0.00 0.00 67 1012.6
20260504150723 69 236 4.0 7.0 0.00 0.00 0.00 55 1012.8
20260504140722 70 248 5.0 7.0 0.00 0.00 0.00 54 1013.1
20260504130720 71 221 5.0 8.0 0.00 0.00 0.00 53 1013.2
20260504110717 69 235 3.0 7.0 0.00 0.00 0.00 51 1013.9
20260504081733 65 205 1.0 3.0 0.00 0.00 0.00 53 1014.8
20260504080730 64 225 2.0 6.0 0.00 0.00 0.00 56 1014.8